Skip Navigation Links weather.gov 
NOAA logo-Select to go to the NOAA homepage NDBC Title GraphicClick to go to NDBC home page   Select to go to the NWS homepage
Home About Us Contact Us
 
 
    
    Station List

 Data Access
    Mobile Access
    Classic Maps
         Recent
         DART®
    Obs Search
    Ship Obs Report
    BuoyCAMs
    TAO
    DODS
    OceanSITES
    HF Radar
    OSMC
    Dial-A-Buoy
    RSS Feeds Image indicating link to RSS feed access page
    Web Widget
    Email Access
    Web Data Guide
    Maintenance Schedule
    Station Status Report

 Program Info
    TAO
    DART®
    IOOS®

 Publications
    NDBC PEA
    NDBC FONSI
    NDBC DQC Handbook

 FAQ
 Visitor Information
 
USA.gov is the U.S. government's official web portal to all federal, state and local government web resources and services.

Station SCXA2 - Scull Island, AK Image indicating link to RSS feed of recent meteorological observations for station SCXA2

Owned and maintained by Marine Exchange of Alaska
C-MAN Station
58.205 N 134.646 W (58°12'17" N 134°38'45" W)

Site elevation: 15.2 m above mean sea level
Air temp height: 2.4 m above site elevation
Anemometer height: 2.4 m above site elevation
Barometer elevation: 17.7 m above mean sea level

Search And Rescue (SAR) Data

Meteorological Observations from Nearby Stations and Ships Image indicating link to RSS feed of recent meteorological observations near station SCXA2

Large icon indicates selected station.
yellow diamond Stations with recent data
red diamond Stations with no data in last 8 hours
     (24 hours for tsunami stations)


Conditions at SCXA2 as of
(6:22 am AKST)
1522 GMT on 12/15/2018:
     

Click on the graph icon in the table below to see a time series plot of the last five days of that observation.

5-day plot - Wind Direction Wind Direction (WDIR): ENE ( 70 deg true )
5-day plot - Wind Speed Wind Speed (WSPD): 16 kts
5-day plot - Wind Gust Wind Gust (GST): 19 kts
5-day plot - Atmospheric Pressure Atmospheric Pressure (PRES): 29.57 in
5-day plot - Air Temperature Air Temperature (ATMP): 26.1 °F
5-day plot - Dew Point Dew Point (DEWP): 19.4 °F
5-day plot - Wind Chill Wind Chill (CHILL): 12.7 °F
5-day plot - Wind Speed at 10 Meters Wind Speed at 10 meters (WSPD10M): 19 kts
5-day plot - Wind Speed at 10 Meters Wind Speed at 20 meters (WSPD20M): 19 kts
5-day plot - Wind Speed, Wind Gust and Atmospheric Pressure Combined plot of Wind Speed, Gust, and Air Pressure
Previous observations
5-day plot - Wind Direction 5-day plot - Wind Speed 5-day plot - Wind Gust 5-day plot - Wave Height 5-day plot - Dominant Wave Period 5-day plot - Average Period 5-day plot - Mean Wave Direction 5-day plot - Atmospheric Pressure 5-day plot - Pressure Tendency 5-day plot - Air Temperature 5-day plot - Water Temperature 5-day plot - Dew Point 5-day plot - Salinity 5-day plot - Visibility 5-day plot - Tide (above MLLW)
MM DD TIME
(AKST)
WDIR WSPD
kts
GST
kts
WVHT
ft
DPD
sec
APD
sec
MWD PRES
in
PTDY
in
ATMP
°F
WTMP
°F
DEWP
°F
SAL
psu
VIS
nmi
TIDE
ft
1215 6:12 amENE 16 19----29.57- 26.1- 19.6---
1215 6:03 amENE 15 19----29.58- 26.1- 19.6---
1215 5:52 amENE 15 17----29.58- 26.1- 19.4---
1215 5:42 am E 16 19----29.58- 25.9- 19.2---
1215 5:32 am E 16 22----29.59- 25.9- 19.0---
1215 5:22 am E 16 19----29.59- 25.9- 19.0---
1215 5:12 am E 16 20----29.59- 25.7- 19.0---
1215 5:02 am E 14 17----29.59- 25.7- 18.9---
1215 4:52 am E 11 15----29.60- 25.9- 19.4---
1215 4:42 am E 11 15----29.60- 25.9- 19.9---
1215 4:32 amENE 13 16----29.59- 25.9- 19.8---
1215 4:22 am E 14 15----29.59- 25.9- 19.8---
1215 4:12 am E 14 17----29.59- 25.9- 19.6---
1215 4:02 am E 13 16----29.59- 25.9- 19.9---
1215 3:52 amESE 12 16----29.59- 25.5- 19.9---
1215 3:42 amESE 13 17----29.59- 25.5- 19.9---
1215 3:33 am E 12 15----29.59- 25.9- 20.1---
1215 3:22 am E 13 15----29.60- 25.9- 20.1---
1215 3:12 am E 12 15----29.60- 25.9- 20.1---
1215 3:02 am E 13 15----29.59- 26.1- 20.1---
1215 2:53 am E 14 18----29.59- 26.2- 20.5---
1215 2:42 am E 16 18----29.58- 26.2- 20.7---
1215 2:32 amENE 16 19----29.58- 26.2- 20.7---
1215 2:23 amENE 17 19----29.58- 26.1- 20.5---
1215 2:12 amENE 17 20----29.58- 26.2- 20.5---
1215 2:02 amENE 17 20----29.57- 26.2- 20.8---
1215 1:52 am E 16 19----29.57- 26.2- 21.2---
1215 1:43 am E 16 18----29.57- 26.4- 21.2---
1215 1:32 am E 15 17----29.57- 26.6- 21.4---
1215 1:22 am E 13 16----29.57- 26.4- 21.7---
1215 1:12 am E 13 15----29.56- 26.8- 21.7---
1215 1:02 am E 13 16----29.56- 26.8- 21.6---
121512:52 am E 13 16----29.56- 26.8- 21.4---
121512:42 am E 13 15----29.56- 26.4- 21.7---
121512:32 amESE 12 18----29.55- 26.4- 21.9---
121512:22 amESE 12 16----29.55- 26.6- 22.1---
121512:12 amESE 10 13----29.55- 26.6- 22.3---
121512:03 amESE 11 14----29.54- 26.2- 21.7---
121411:53 pmESE 12 15----29.54- 26.2- 21.6---
121411:43 pmESE 11 15----29.53- 26.4- 21.7---
121411:32 pmESE 11 15----29.53- 26.6- 21.9---
121411:22 pmESE 12 15----29.53- 26.6- 21.9---
121411:12 pmESE 10 12----29.52- 26.6- 21.9---
121411:02 pmESE 11 15----29.52- 26.8- 22.1---
121410:52 pmESE 10 13----29.52- 26.8- 22.1---
121410:42 pmESE 12 15----29.52- 27.1- 22.5---
121410:32 pm E 12 15----29.52- 27.3- 22.8---
121410:22 pmESE 9 13----29.52- 27.5- 22.8---
121410:12 pmESE 11 14----29.51- 27.5- 22.8---
121410:02 pmESE 10 12----29.50- 27.9- 23.2---
1214 9:52 pm E 10 12----29.50- 28.2- 23.4---
1214 9:42 pmENE 9 11----29.49- 28.4- 23.4---
1214 9:32 pmENE 8 10----29.49- 28.6- 23.4---
1214 9:22 pm NE 9 11----29.49- 28.6- 23.4---
1214 9:12 pmENE 9 13----29.48- 28.6- 23.5---
1214 9:02 pmENE 10 13----29.48- 28.6- 23.5---
1214 8:52 pm NE 9 14----29.48- 28.8- 23.5---
1214 8:42 pmNNE 9 13----29.48- 29.1- 23.4---
1214 8:32 pm N 10 13----29.48- 29.1- 22.8---
1214 8:22 pm N 9 13----29.48- 29.1- 23.2---
1214 8:12 pmNNW 9 11----29.47- 28.9- 23.2---
1214 8:02 pm NW 9 12----29.47- 28.9- 23.5---
1214 7:52 pm NW 10 14----29.47- 28.9- 23.4---
1214 7:42 pm NW 11 13----29.47- 29.1- 23.5---
1214 7:32 pm NW 10 13----29.47- 29.3- 23.5---
1214 7:22 pm NW 10 14----29.47- 29.7- 23.9---
1214 7:12 pm NW 12 15----29.47- 30.0- 24.4---
1214 7:02 pmWNW 14 20----29.46- 30.2- 24.8---
1214 6:52 pmWNW 16 21----29.46- 30.4- 25.0---
1214 6:42 pmWNW 8 14----29.46- 30.4- 24.6---
1214 6:32 pm NW 8 10----29.46- 30.4- 24.3---
1214 6:22 pm NW 7 9----29.46- 30.6- 24.3---
1214 6:12 pmNNW 6 9----29.45- 30.6- 24.3---
1214 6:02 pmNNW 7 9----29.45- 30.6- 24.3---
1214 5:52 pmNNW 8 14----29.45- 30.7- 24.6---
1214 5:42 pmWNW 14 21----29.45- 30.7- 24.8---
1214 5:32 pmWNW 14 21----29.44- 30.9- 25.2---
1214 5:22 pm NW 10 13----29.45- 30.7- 25.2---
1214 5:12 pm NW 11 16----29.44- 30.7- 25.3---
1214 5:02 pmWNW 18 24----29.44- 30.6- 25.2---
1214 4:52 pmWNW 15 21----29.44- 30.6- 25.5---
1214 4:42 pm W 15 20----29.43- 30.6- 25.3---
1214 4:32 pm W 16 25----29.43- 30.6- 25.3---
1214 4:22 pm W 16 20----29.43- 30.7- 25.3---
1214 4:12 pm W 16 25----29.43- 30.7- 25.3---
1214 4:02 pm W 15 18----29.43- 30.9- 25.5---
1214 3:52 pm W 16 23----29.43- 31.3- 25.9---
1214 3:44 pmWNW 18 25----29.43- 31.3- 25.7---
1214 3:32 pmWNW 20 30----29.43- 31.3- 25.7---
1214 3:22 pmWNW 23 28----29.43- 31.3- 26.1---
1214 3:13 pmWNW 22 32----29.43- 31.5- 26.2---
1214 2:52 pm NW 20 24----29.43- 31.8- 25.9---
1214 2:42 pmWNW 20 27----29.43- 31.6- 25.5---
1214 2:23 pmWNW 18 24----29.44- 31.3- 25.7---
1214 2:13 pm NW 16 19----29.44- 31.5- 25.2---
1214 2:03 pm NW 16 18----29.44- 31.8- 25.2---
1214 1:53 pmWNW 16 23----29.44- 32.0- 25.5---
1214 1:42 pmWNW 20 28----29.43- 32.0- 25.5---
1214 1:32 pmWNW 14 17----29.44- 32.0- 25.3---
1214 1:22 pm NW 15 18----29.44- 32.0- 25.7---
1214 1:12 pm NW 15 18----29.44- 32.0- 25.5---
1214 1:02 pm NW 15 18----29.45- 32.0- 26.1---
121412:52 pm NW 15 19----29.45- 31.8- 25.9---
121412:42 pm NW 15 19----29.46- 31.6- 25.9---
121412:33 pm NW 16 20----29.47- 31.6- 25.9---
121412:22 pm NW 15 19----29.47- 31.5- 25.7---
121412:13 pm NW 13 17----29.47- 31.5- 25.9---
121412:02 pm NW 12 16----29.48- 31.5- 26.1---
121411:52 amWNW 13 19----29.48- 31.5- 26.1---
121411:42 amWNW 15 19----29.48- 31.5- 26.1---
121411:32 amWNW 14 19----29.48- 31.5- 26.1---
121411:22 am W 14 18----29.48- 31.8- 26.1---
121411:12 am W 12 15----29.48- 31.8- 25.9---
121411:03 am W 10 12----29.49- 31.5- 26.1---
121410:52 am W 11 14----29.49- 31.5- 26.4---
121410:42 am W 11 13----29.49- 31.6- 26.4---
121410:32 amWNW 13 18----29.49- 31.6- 26.2---
121410:22 amWNW 10 13----29.49- 31.6- 26.2---
121410:12 amWNW 10 15----29.49- 31.6- 26.4---
121410:02 am NW 9 11----29.49- 31.6- 26.1---
1214 9:52 am NW 9 11----29.50- 31.5- 26.4---
1214 9:42 amWNW 8 11----29.50- 31.5- 26.8---
1214 9:32 amWNW 10 14----29.50- 31.5- 27.0---
1214 9:23 amWNW 10 16----29.50- 31.6- 27.3---
1214 9:12 am W 6 11----29.50- 31.5- 27.3---
1214 9:02 am W 7 10----29.49- 31.3- 27.1---
1214 8:52 amWSW 7 9----29.49- 30.9- 26.6---
1214 8:43 am SW 4 8----29.49- 30.6- 26.1---
1214 8:32 am SE 3 5----29.49- 30.6- 26.2---
1214 8:22 am SE 3 5----29.49- 30.6- 26.2---
1214 8:13 am SE 5 7----29.49- 30.7- 26.4---
1214 8:02 am SE 5 7----29.50- 30.9- 26.4---
1214 7:53 am S 5 8----29.50- 31.3- 26.4---
1214 7:42 amSSW 3 6----29.51- 31.3- 26.6---
1214 7:32 amSSW 8 12----29.51- 31.5- 26.6---
1214 7:22 am SW 3 5----29.52- 31.6- 26.8---
1214 7:12 amWSW 4 5----29.52- 31.5- 26.6---
1214 7:02 amWSW 5 7----29.52- 31.1- 26.6---
1214 6:53 am SW 8 12----29.52- 31.1- 26.6---
1214 6:42 am W 5 8----29.52- 31.1- 26.8---
1214 6:32 am SW 4 6----29.52- 30.9- 26.6---
1214 6:22 am S 3 8----29.52- 30.9- 26.6---
1214 6:12 am SW 5 8----29.52- 31.1- 26.4---
1214 6:02 amSSW 3 5----29.53- 31.3- 26.6---
1214 5:52 am SW 5 7----29.53- 31.3- 26.8---

Description of Measurements

Links which are specific to this station are listed below:

Real Time Data in tabular form for the last forty-five days.

Historical Data & Climatic Summaries for quality controlled data for the current month, previous months, and previous years.